SCP
0 0 0 0 0 0 0 0 0 0 0 0 0 0 0 0 0 0 0 0 0 0 0 0 0 0 0 0 0 0 0 0 0 0 0 0 0 0 0 0 0 0 0
0 0 0 0 0 0 0 0 0 0 0 0 0 0 0 0 0 0 0 0 0 0 0 0 0 0 0 0 0 0 0 0 0 0 0 0 0 0 0 0 0 0 0
0 0 0 0 0 0 0 0 0 0 0 0 0 0 0 0 0 0 0 0 0 0 0 0 0 0 0 0 0 0 0 0 0 0 0 0 0 0 0 0 0 0 0
0 0 0 0 0 0 0 0 0 0 0 0 -0 0 0 0 0 0 0 0 0 0 0 0 0 0 0 0 0 0 0 0 0 0 0 0 0 0 0 0 0 0 0
0 0 0 0 0 0 0 -0 -0 -0 -0 -0 -0 -0 -0 -0 0 0 0 0 0 0 0 0 0 0 0 0 0 0 0 0 0 0 0 0 0 0 0 0 0 0 0
0 0 0 0 0 0 0 -0 -0 -0 -0 -0 -0 -0 -0 -0 -0 0 0 0 0 0 0 0 0 0 0 0 0 0 0 0 0 0 0 0 0 0 0 0 0 0 0
0 0 0 0 0 0 0 0 -0 -0 -0 -0 -0 -0 0 0 0 0 0 0 0 0 0 0 0 0 0 0 0 0 0 0 0 0 0 0 0 0 0 0 0 0 0
0 0 0 0 0 0 0 0 0 -0 -0 -0 0 0 0 0 0 0 0 0 0 0 0 0 0 0 0 0 0 0 0 0 0 0 0 0 0 0 0 0 0 0 0
0 0 0 0 0 0 0 0 0 0 0 0 0 0 0 0 0 0 0 0 0 0 0 0 0 0 0 0 0 0 0 0 0 0 0 0 0 0 0 0 0 0 0
0 0 0 0 0 0 0 0 0 0 0 0 0 0 0 0 0 0 0 0 0 0 0 0 0 0 0 0 0 0 0 0 0 0 0 0 0 0 0 0 0 0 0
0 0 0 0 0 0 0 0 0 0 0 0 0 0 0 0 0 0 0 0 0 0 0 0 0 0 0 0 0 0 0 0 0 0 0 0 0 0 0 0 0 0 0
0 0 0 0 0 0 0 0 0 0 0 0 0 0 0 0 0 0 0 0 0 0 0 0 0 0 0 0 0 0 0 0 0 0 0 0 0 0 0 0 0 0 0
0 0 0 0 0 0 0 0 0 0 0 0 0 0 0 0 0 0 0 0 0 0 0 0 0 0 0 0 0 0 0 0 0 0 0 0 0 0 0 0 0 0 0
0 0 0 0 0 0 0 0 0 0 0 0 0 0 0 0 0 0 0 0 0 0 0 0 0 0 -0 -0 -0 0 0 0 0 0 0 0 0 0 0 0 0 0 0
0 0 0 0 0 0 0 0 0 0 0 0 0 -0 -0 0 0 0 0 -0 -0 -0 0 0 0 0 0 0 -0 -0 0 0 0 0 0 0 0 0 0 0 0 0 0
0 0 0 0 0 0 0 0 0 0 0 -0 -0 -0 -0 0 -0 0 -0 -0 -0 0 0 0 0 0 0 0 0 0 0 0 0 0 0 0 0 0 -0 0 0 0 0
0 0 0 0 0 0 0 0 0 0 -0 -0 0 0 0 -0 0 0 -0 0 0 0 0 0 0 0 0 0 0 0 0 0 0 0 0 0 0 0 0 0 0 0 0
0 0 0 0 0 0 0 0 0 -0 -0 0 0 0 0 0 0 0 0 0 0 0 0 0 0 0 0 0 0 0 0 0 0 0 0 0 0 0 0 0 0 0 0
0 0 0 0 0 0 0 0 -0 0 0 0 0 0 0 0 0 0 0 0 0 0 0 0 0 0 0 0 0 0 0 0 0 0 0 0 0 0 0 0 0 0 0
0 0 0 0 0 0 0 0 0 0 0 0 0 0 0 0 0 0 0 0 0 0 0 0 0 0 0 0 0 0 0 0 0 0 0 0 0 0 0 0 0 0 0
0 0 0 0 0 0 0 -0 -0 0 0 0 0 0 0 0 0 0 0 0 0 0 0 0 0 0 0 0 0 0 0 0 0 0 0 0 0 0 0 0 0 0 0
0 0 0 0 0 0 0 0 0 0 0 0 0 0 0 0 0 0 0 0 0 0 0 0 0 0 0 0 0 0 0 0 0 0 0 0 0 0 0 0 0 0 0
0 0 0 0 0 -0 0 0 -0 0 0 0 0 0 0 0 0 0 0 0 0 0 0 0 0 0 0 0 0 0 0 0 0 0 0 0 0 0 0 0 0 0 0
0 0 0 0 -0 -0 -0 -0 -0 -0 -0 -0 -0 0 0 0 0 0 0 0 0 0 0 0 0 0 0 0 0 0 0 0 0 0 0 0 0 0 0 0 0 0 0
0 0 0 -0 -0 -0 0 -0 -0 0 0 0 0 0 0 0 0 0 0 0 0 0 0 0 0 0 0 0 0 0 0 0 0 0 0 0 0 0 0 0 0 0 0
0 0 0 -0 -0 -0 0 -0 -0 -0 -0 -0 -0 0 0 0 0 0 0 0 0 0 0 0 0 0 0 0 0 0 0 0 0 0 0 0 0 0 0 -0 0 0 0
Wind_Speed_500mb
27 24 27 26 25 25 24 25 21 20 6 2 2 4 7 6 11 15 19 23 27 31 35 37 39 39 39 38 40 43 42 40 44 46 57 56 46 45 42 46 46 43 42
24 24 23 23 25 26 28 26 27 25 24 20 14 13 14 19 23 26 29 33 39 43 45 48 50 52 52 48 46 44 44 40 35 31 36 39 40 38 36 33 26 23 35
28 23 20 22 22 26 31 31 32 31 30 28 23 20 21 24 27 30 34 36 39 41 45 47 49 50 51 54 55 53 49 49 43 31 25 20 15 24 33 43 46 48 43
24 21 17 18 21 30 32 35 38 39 40 41 42 41 37 36 36 38 39 39 38 37 37 38 39 40 41 41 38 36 40 44 45 45 31 34 30 15 17 34 41 41 44
26 25 17 15 19 24 29 33 38 44 50 52 49 43 38 35 34 32 31 30 29 30 30 30 29 30 32 30 29 27 26 25 28 29 33 40 40 41 39 39 35 41 40
34 30 23 14 12 16 24 36 43 50 54 53 47 41 37 36 35 34 31 28 24 24 24 24 24 25 26 25 25 24 24 24 22 20 20 22 26 31 33 32 31 32 30
38 35 25 13 6 12 26 37 45 52 55 50 43 36 30 29 32 32 31 30 27 25 24 24 21 22 24 24 28 29 29 32 33 26 21 20 23 29 30 30 24 14 15
40 36 25 13 2 13 23 34 45 51 53 49 39 28 24 25 26 28 29 29 26 25 25 23 21 18 21 22 22 22 24 26 28 30 26 18 14 8 9 14 15 13 12
43 36 25 10 3 11 21 32 39 45 47 42 31 24 23 26 26 23 26 25 25 24 22 20 18 19 18 22 22 24 22 25 26 26 24 20 20 17 15 5 13 11 13
44 35 23 10 3 11 22 30 36 41 39 29 23 27 25 26 22 22 25 27 27 28 23 14 13 17 21 22 23 24 26 26 26 25 22 20 19 19 17 17 16 15 17
46 36 23 12 7 16 25 28 34 37 33 26 25 28 24 21 22 26 29 34 36 34 36 31 24 21 22 23 24 28 32 34 34 34 33 31 29 24 21 18 16 14 15
42 31 21 10 9 18 24 26 30 33 31 25 28 32 32 29 27 33 34 40 43 45 45 42 38 34 30 29 35 39 40 39 32 27 27 27 27 26 24 24 23 20 18
42 31 18 9 11 17 20 19 22 28 22 27 31 33 31 29 31 37 41 40 38 41 42 41 42 41 39 34 37 39 45 41 36 31 27 29 29 24 22 21 20 19 20
39 28 17 10 10 13 14 16 18 20 22 27 24 23 25 31 32 31 32 35 37 36 36 36 32 30 27 24 23 32 40 42 46 43 42 41 41 40 32 24 24 24 27
35 25 14 7 8 10 11 12 14 14 18 19 19 26 26 24 25 30 32 33 35 38 38 35 29 26 27 28 23 23 31 32 39 41 43 43 41 38 36 30 24 27 29
33 23 14 9 11 8 8 9 9 9 13 15 21 21 21 18 17 16 19 21 24 30 34 38 37 32 23 25 22 18 21 26 28 33 34 33 33 31 31 27 20 25 30
32 21 11 12 11 3 4 1 5 11 19 23 21 18 21 21 22 22 22 20 19 20 24 33 39 29 27 24 19 17 20 23 27 30 33 30 31 32 27 20 19 21 24
24 17 14 10 7 7 5 3 6 17 22 22 15 16 16 18 22 25 23 22 20 17 19 28 39 33 24 23 21 22 24 24 27 33 34 33 31 31 31 29 26 24 26
16 13 12 10 12 9 10 9 18 23 21 17 12 9 12 14 11 20 27 28 16 17 18 25 32 33 28 24 24 23 24 24 27 26 28 31 30 32 36 32 29 21 22
14 12 7 9 12 15 13 20 22 27 20 11 9 15 22 25 11 14 21 27 24 21 21 25 23 25 31 34 33 33 32 29 30 24 28 30 31 34 38 38 31 23 28
12 11 11 13 16 17 27 28 31 24 14 8 9 14 21 30 32 27 25 27 23 20 18 20 19 23 28 29 26 33 38 33 31 33 34 34 32 36 41 39 28 27 24
16 14 17 20 20 23 35 36 27 19 16 17 19 17 16 19 21 23 27 33 35 26 26 21 17 21 26 24 25 32 38 40 35 33 35 38 41 41 42 39 26 22 33
13 16 21 21 26 42 38 31 26 19 14 12 7 6 7 9 12 14 16 19 30 32 27 25 17 16 21 22 25 23 30 38 40 36 40 43 45 41 39 38 38 40 46
18 20 28 37 47 38 31 22 16 12 8 5 6 5 7 11 16 18 18 16 15 22 21 16 16 17 18 22 28 31 32 39 45 44 46 48 47 47 47 46 44 47 50
33 42 46 42 36 28 20 17 14 8 4 0 5 7 10 12 15 19 15 12 13 13 20 20 15 22 24 24 28 32 33 40 44 46 50 55 59 62 64 61 55 50 48
48 46 42 36 26 21 18 14 9 4 4 4 7 8 11 9 18 21 16 14 15 14 13 19 18 17 20 24 29 33 34 40 40 46 52 56 61 64 68 67 60 53 56
Wind_Direction_500mb
85 78 69 65 67 68 67 60 56 65 70 235 237 259 291 307 301 302 299 295 292 291 292 292 294 295 295 293 291 291 291 286 281 281 274 274 282 288 278 271 272 275 280
108 93 80 71 59 57 54 48 43 42 40 36 24 351 334 314 310 307 305 300 299 298 296 296 294 294 295 294 295 296 291 283 286 293 298 294 286 276 279 275 282 292 302
124 106 90 72 57 51 41 31 23 15 10 8 0 344 324 312 301 301 308 311 310 306 304 305 305 305 301 296 294 295 296 297 292 290 297 287 278 274 269 281 284 292 291
138 125 104 81 54 41 25 14 7 2 359 354 349 345 342 336 335 332 329 329 326 324 320 316 316 319 318 321 317 303 293 290 291 288 277 265 276 286 270 271 283 286 296
157 145 129 96 62 34 17 11 5 358 356 352 351 351 350 351 349 345 341 338 339 338 339 336 335 339 342 344 344 341 339 328 311 295 290 283 286 285 278 280 281 283 278
162 158 154 126 63 28 11 4 359 356 354 353 352 352 355 356 356 356 357 0 360 2 5 4 4 7 2 4 11 13 5 357 343 325 302 286 287 296 290 288 287 285 284
169 163 161 148 92 15 359 352 349 349 350 349 349 353 359 6 7 10 10 7 8 9 10 9 11 13 19 25 22 17 10 9 4 350 333 313 304 294 286 285 291 287 278
173 170 174 175 101 351 345 341 343 345 344 342 345 350 356 3 7 8 7 1 359 358 3 8 9 16 22 27 20 14 19 14 15 21 15 8 347 351 323 306 310 324 323
175 178 179 172 329 340 334 332 337 339 337 342 353 4 1 1 3 1 355 357 355 353 350 352 3 11 15 16 16 15 19 14 18 24 19 20 17 10 356 7 13 2 327
177 178 177 183 256 325 328 335 343 343 342 352 2 6 360 0 13 7 1 357 355 349 341 344 355 2 5 7 21 24 24 15 13 12 6 6 2 354 345 343 328 320 311
179 177 179 195 275 322 336 348 348 345 346 356 15 4 2 34 33 22 35 38 37 41 44 48 39 28 28 37 34 35 34 33 33 33 31 32 27 16 7 6 13 23 17
177 178 185 207 289 326 344 345 350 351 6 41 32 36 61 61 55 45 51 61 56 54 55 52 49 46 47 50 58 50 43 34 25 23 26 28 25 21 26 33 34 28 12
175 179 188 226 304 332 335 345 354 2 36 57 53 62 63 64 56 63 66 64 56 56 55 56 55 57 64 58 53 43 35 28 27 27 20 13 9 8 12 9 4 1 2
175 184 203 251 308 322 340 353 0 14 72 70 66 61 66 69 68 62 59 54 53 53 48 44 39 36 36 28 31 32 34 44 44 43 40 33 27 21 14 6 8 7 357
181 196 211 250 291 311 335 345 5 32 93 80 65 81 80 64 65 68 64 59 57 53 47 40 31 20 20 26 23 31 33 50 41 37 35 32 28 21 16 15 19 24 11
189 196 214 263 294 300 327 2 34 57 92 77 98 85 70 54 42 46 42 39 47 44 37 32 23 21 18 23 25 43 49 44 30 19 15 10 7 11 14 15 18 9 8
194 208 243 284 274 276 301 350 48 108 101 104 101 74 49 44 38 23 15 15 17 22 18 16 16 21 26 30 30 16 14 14 7 7 6 7 1 358 355 342 341 338 338
201 219 251 261 220 181 180 150 118 130 121 110 90 50 38 34 28 20 16 8 2 4 6 8 16 23 26 22 12 2 355 353 358 356 3 3 355 350 348 348 340 314 324
212 237 241 219 200 189 175 156 134 134 124 110 64 28 5 348 352 14 19 17 358 356 5 2 7 18 19 17 7 10 12 2 360 358 359 357 354 351 348 339 341 329 333
226 246 227 180 162 172 150 150 133 135 123 107 54 47 24 26 25 357 353 355 2 359 360 1 13 30 41 35 28 20 9 4 6 3 359 356 353 346 347 344 345 341 342
227 202 179 157 147 146 145 143 136 133 133 125 89 70 55 53 51 50 46 38 23 11 10 11 40 49 37 27 19 24 24 16 11 4 2 357 353 346 344 344 346 345 343
188 179 172 163 156 145 149 143 139 134 122 116 114 98 77 58 52 52 49 43 37 37 36 42 60 51 33 28 25 16 13 12 0 360 359 355 349 346 347 349 353 338 328
174 178 176 170 156 146 144 141 139 135 119 111 93 63 37 8 7 13 17 27 37 40 41 44 46 38 31 25 8 7 7 8 2 355 356 355 352 349 348 345 335 330 331
172 165 158 147 143 144 145 144 150 156 145 97 63 66 41 348 349 347 341 342 5 24 27 30 29 25 12 4 1 358 357 1 8 3 1 1 6 6 4 359 348 342 343
152 145 142 142 145 147 145 151 166 169 183 35 9 349 343 346 354 346 334 327 321 336 13 7 354 358 359 355 347 349 352 359 7 4 5 9 9 6 3 359 355 352 350
153 151 151 152 153 155 159 162 170 210 273 264 313 328 348 335 332 342 345 339 349 323 344 3 5 358 346 350 351 351 349 353 359 4 9 7 7 5 2 358 354 355 353
Wind_Speed_850mb
27 24 27 26 25 25 24 25 21 20 6 2 2 4 7 6 11 15 19 23 27 31 35 37 39 39 39 38 40 43 42 40 44 46 57 56 46 45 42 46 46 43 42
24 24 23 23 25 26 28 26 27 25 24 20 14 13 14 19 23 26 29 33 39 43 45 48 50 52 52 48 46 44 44 40 35 31 36 39 40 38 36 33 26 23 35
28 23 20 22 22 26 31 31 32 31 30 28 23 20 21 24 27 30 34 36 39 41 45 47 49 50 51 54 55 53 49 49 43 31 25 20 15 24 33 43 46 48 43
24 21 17 18 21 30 32 35 38 39 40 41 42 41 37 36 36 38 39 39 38 37 37 38 39 40 41 41 38 36 40 44 45 45 31 34 30 15 17 34 41 41 44
26 25 17 15 19 24 29 33 38 44 50 52 49 43 38 35 34 32 31 30 29 30 30 30 29 30 32 30 29 27 26 25 28 29 33 40 40 41 39 39 35 41 40
34 30 23 14 12 16 24 36 43 50 54 53 47 41 37 36 35 34 31 28 24 24 24 24 24 25 26 25 25 24 24 24 22 20 20 22 26 31 33 32 31 32 30
38 35 25 13 6 12 26 37 45 52 55 50 43 36 30 29 32 32 31 30 27 25 24 24 21 22 24 24 28 29 29 32 33 26 21 20 23 29 30 30 24 14 15
40 36 25 13 2 13 23 34 45 51 53 49 39 28 24 25 26 28 29 29 26 25 25 23 21 18 21 22 22 22 24 26 28 30 26 18 14 8 9 14 15 13 12
43 36 25 10 3 11 21 32 39 45 47 42 31 24 23 26 26 23 26 25 25 24 22 20 18 19 18 22 22 24 22 25 26 26 24 20 20 17 15 5 13 11 13
44 35 23 10 3 11 22 30 36 41 39 29 23 27 25 26 22 22 25 27 27 28 23 14 13 17 21 22 23 24 26 26 26 25 22 20 19 19 17 17 16 15 17
46 36 23 12 7 16 25 28 34 37 33 26 25 28 24 21 22 26 29 34 36 34 36 31 24 21 22 23 24 28 32 34 34 34 33 31 29 24 21 18 16 14 15
42 31 21 10 9 18 24 26 30 33 31 25 28 32 32 29 27 33 34 40 43 45 45 42 38 34 30 29 35 39 40 39 32 27 27 27 27 26 24 24 23 20 18
42 31 18 9 11 17 20 19 22 28 22 27 31 33 31 29 31 37 41 40 38 41 42 41 42 41 39 34 37 39 45 41 36 31 27 29 29 24 22 21 20 19 20
39 28 17 10 10 13 14 16 18 20 22 27 24 23 25 31 32 31 32 35 37 36 36 36 32 30 27 24 23 32 40 42 46 43 42 41 41 40 32 24 24 24 27
35 25 14 7 8 10 11 12 14 14 18 19 19 26 26 24 25 30 32 33 35 38 38 35 29 26 27 28 23 23 31 32 39 41 43 43 41 38 36 30 24 27 29
33 23 14 9 11 8 8 9 9 9 13 15 21 21 21 18 17 16 19 21 24 30 34 38 37 32 23 25 22 18 21 26 28 33 34 33 33 31 31 27 20 25 30
32 21 11 12 11 3 4 1 5 11 19 23 21 18 21 21 22 22 22 20 19 20 24 33 39 29 27 24 19 17 20 23 27 30 33 30 31 32 27 20 19 21 24
24 17 14 10 7 7 5 3 6 17 22 22 15 16 16 18 22 25 23 22 20 17 19 28 39 33 24 23 21 22 24 24 27 33 34 33 31 31 31 29 26 24 26
16 13 12 10 12 9 10 9 18 23 21 17 12 9 12 14 11 20 27 28 16 17 18 25 32 33 28 24 24 23 24 24 27 26 28 31 30 32 36 32 29 21 22
14 12 7 9 12 15 13 20 22 27 20 11 9 15 22 25 11 14 21 27 24 21 21 25 23 25 31 34 33 33 32 29 30 24 28 30 31 34 38 38 31 23 28
12 11 11 13 16 17 27 28 31 24 14 8 9 14 21 30 32 27 25 27 23 20 18 20 19 23 28 29 26 33 38 33 31 33 34 34 32 36 41 39 28 27 24
16 14 17 20 20 23 35 36 27 19 16 17 19 17 16 19 21 23 27 33 35 26 26 21 17 21 26 24 25 32 38 40 35 33 35 38 41 41 42 39 26 22 33
13 16 21 21 26 42 38 31 26 19 14 12 7 6 7 9 12 14 16 19 30 32 27 25 17 16 21 22 25 23 30 38 40 36 40 43 45 41 39 38 38 40 46
18 20 28 37 47 38 31 22 16 12 8 5 6 5 7 11 16 18 18 16 15 22 21 16 16 17 18 22 28 31 32 39 45 44 46 48 47 47 47 46 44 47 50
33 42 46 42 36 28 20 17 14 8 4 0 5 7 10 12 15 19 15 12 13 13 20 20 15 22 24 24 28 32 33 40 44 46 50 55 59 62 64 61 55 50 48
48 46 42 36 26 21 18 14 9 4 4 4 7 8 11 9 18 21 16 14 15 14 13 19 18 17 20 24 29 33 34 40 40 46 52 56 61 64 68 67 60 53 56
Wind_Direction_850mb
85 78 69 65 67 68 67 60 56 65 70 235 237 259 291 307 301 302 299 295 292 291 292 292 294 295 295 293 291 291 291 286 281 281 274 274 282 288 278 271 272 275 280
108 93 80 71 59 57 54 48 43 42 40 36 24 351 334 314 310 307 305 300 299 298 296 296 294 294 295 294 295 296 291 283 286 293 298 294 286 276 279 275 282 292 302
124 106 90 72 57 51 41 31 23 15 10 8 0 344 324 312 301 301 308 311 310 306 304 305 305 305 301 296 294 295 296 297 292 290 297 287 278 274 269 281 284 292 291
138 125 104 81 54 41 25 14 7 2 359 354 349 345 342 336 335 332 329 329 326 324 320 316 316 319 318 321 317 303 293 290 291 288 277 265 276 286 270 271 283 286 296
157 145 129 96 62 34 17 11 5 358 356 352 351 351 350 351 349 345 341 338 339 338 339 336 335 339 342 344 344 341 339 328 311 295 290 283 286 285 278 280 281 283 278
162 158 154 126 63 28 11 4 359 356 354 353 352 352 355 356 356 356 357 0 360 2 5 4 4 7 2 4 11 13 5 357 343 325 302 286 287 296 290 288 287 285 284
169 163 161 148 92 15 359 352 349 349 350 349 349 353 359 6 7 10 10 7 8 9 10 9 11 13 19 25 22 17 10 9 4 350 333 313 304 294 286 285 291 287 278
173 170 174 175 101 351 345 341 343 345 344 342 345 350 356 3 7 8 7 1 359 358 3 8 9 16 22 27 20 14 19 14 15 21 15 8 347 351 323 306 310 324 323
175 178 179 172 329 340 334 332 337 339 337 342 353 4 1 1 3 1 355 357 355 353 350 352 3 11 15 16 16 15 19 14 18 24 19 20 17 10 356 7 13 2 327
177 178 177 183 256 325 328 335 343 343 342 352 2 6 360 0 13 7 1 357 355 349 341 344 355 2 5 7 21 24 24 15 13 12 6 6 2 354 345 343 328 320 311
179 177 179 195 275 322 336 348 348 345 346 356 15 4 2 34 33 22 35 38 37 41 44 48 39 28 28 37 34 35 34 33 33 33 31 32 27 16 7 6 13 23 17
177 178 185 207 289 326 344 345 350 351 6 41 32 36 61 61 55 45 51 61 56 54 55 52 49 46 47 50 58 50 43 34 25 23 26 28 25 21 26 33 34 28 12
175 179 188 226 304 332 335 345 354 2 36 57 53 62 63 64 56 63 66 64 56 56 55 56 55 57 64 58 53 43 35 28 27 27 20 13 9 8 12 9 4 1 2
175 184 203 251 308 322 340 353 0 14 72 70 66 61 66 69 68 62 59 54 53 53 48 44 39 36 36 28 31 32 34 44 44 43 40 33 27 21 14 6 8 7 357
181 196 211 250 291 311 335 345 5 32 93 80 65 81 80 64 65 68 64 59 57 53 47 40 31 20 20 26 23 31 33 50 41 37 35 32 28 21 16 15 19 24 11
189 196 214 263 294 300 327 2 34 57 92 77 98 85 70 54 42 46 42 39 47 44 37 32 23 21 18 23 25 43 49 44 30 19 15 10 7 11 14 15 18 9 8
194 208 243 284 274 276 301 350 48 108 101 104 101 74 49 44 38 23 15 15 17 22 18 16 16 21 26 30 30 16 14 14 7 7 6 7 1 358 355 342 341 338 338
201 219 251 261 220 181 180 150 118 130 121 110 90 50 38 34 28 20 16 8 2 4 6 8 16 23 26 22 12 2 355 353 358 356 3 3 355 350 348 348 340 314 324
212 237 241 219 200 189 175 156 134 134 124 110 64 28 5 348 352 14 19 17 358 356 5 2 7 18 19 17 7 10 12 2 360 358 359 357 354 351 348 339 341 329 333
226 246 227 180 162 172 150 150 133 135 123 107 54 47 24 26 25 357 353 355 2 359 360 1 13 30 41 35 28 20 9 4 6 3 359 356 353 346 347 344 345 341 342
227 202 179 157 147 146 145 143 136 133 133 125 89 70 55 53 51 50 46 38 23 11 10 11 40 49 37 27 19 24 24 16 11 4 2 357 353 346 344 344 346 345 343
188 179 172 163 156 145 149 143 139 134 122 116 114 98 77 58 52 52 49 43 37 37 36 42 60 51 33 28 25 16 13 12 0 360 359 355 349 346 347 349 353 338 328
174 178 176 170 156 146 144 141 139 135 119 111 93 63 37 8 7 13 17 27 37 40 41 44 46 38 31 25 8 7 7 8 2 355 356 355 352 349 348 345 335 330 331
172 165 158 147 143 144 145 144 150 156 145 97 63 66 41 348 349 347 341 342 5 24 27 30 29 25 12 4 1 358 357 1 8 3 1 1 6 6 4 359 348 342 343
152 145 142 142 145 147 145 151 166 169 183 35 9 349 343 346 354 346 334 327 321 336 13 7 354 358 359 355 347 349 352 359 7 4 5 9 9 6 3 359 355 352 350
153 151 151 152 153 155 159 162 170 210 273 264 313 328 348 335 332 342 345 339 349 323 344 3 5 358 346 350 351 351 349 353 359 4 9 7 7 5 2 358 354 355 353